EW6774 Weather Reports


time (UTC)temp
C
wind
direction
speed
KPH
gust
KPH
rain 1hr
cm
rain 24hr
cm
rain mn
cm
humidity
%
barometer
mb
20260507023403 14 218 0.0 0.0 0.00 0.00 0.00 74 1019.9
20260507022903 14 212 0.0 0.0 0.00 0.00 0.00 74 1019.8
20260507021903 14 203 0.0 4.8 0.00 0.00 0.00 74 1019.9
20260507020903 14 218 0.0 0.0 0.00 0.00 0.00 74 1019.8
20260507020403 14 218 0.0 0.0 0.00 0.00 0.00 74 1019.8
20260507014903 15 218 1.6 4.8 0.00 0.00 0.00 73 1019.7
20260507014402 15 188 1.6 3.2 0.00 0.00 0.00 73 1019.7
20260507012403 15 124 1.6 4.8 0.00 0.00 0.00 73 1019.7
20260507011403 15 142 1.6 4.8 0.00 0.00 0.00 73 1019.7
20260507010903 15 198 1.6 4.8 0.00 0.00 0.00 73 1019.8
20260507010403 15 224 1.6 4.8 0.00 0.00 0.00 73 1019.9
20260507005903 15 183 0.0 3.2 0.00 0.00 0.00 72 1019.8
20260507004903 15 205 1.6 4.8 0.00 0.00 0.00 72 1019.9
20260507004404 15 205 0.0 3.2 0.00 0.00 0.00 73 1019.8
20260507003903 15 150 1.6 4.8 0.00 0.00 0.00 73 1019.9
20260507002403 15 185 0.0 3.2 0.00 0.00 0.00 73 1019.8
20260507001903 15 201 3.2 8.0 0.00 0.00 0.00 73 1019.8
20260507001403 15 185 1.6 4.8 0.00 0.00 0.00 73 1019.9
20260507000902 15 189 1.6 4.8 0.00 0.00 0.00 73 1019.8
20260507000405 15 206 1.6 4.8 0.00 0.00 0.00 73 1019.9
20260506235903 15 149 0.0 3.2 0.00 0.00 0.00 74 1019.9
20260506235403 15 208 3.2 8.0 0.00 0.00 0.00 73 1019.9
20260506234403 15 172 0.0 4.8 0.00 0.00 0.00 73 1019.9
20260506233902 15 153 3.2 4.8 0.00 0.00 0.00 73 1019.9
20260506233403 15 215 1.6 8.0 0.00 0.00 0.00 73 1019.9
20260506232903 15 199 1.6 4.8 0.00 0.00 0.00 73 1019.8
20260506232403 15 215 0.0 11.3 0.00 0.00 0.00 73 1019.8
20260506231903 15 195 4.8 11.3 0.00 0.00 0.00 72 1019.8
20260506231403 16 172 3.2 8.0 0.00 0.00 0.00 72 1019.9
20260506230903 16 162 1.6 8.0 0.00 0.00 0.00 73 1019.9
20260506230403 16 187 3.2 4.8 0.00 0.00 0.00 73 1019.8
20260506225903 16 154 1.6 9.7 0.00 0.00 0.00 73 1019.8
20260506225403 15 190 1.6 4.8 0.00 0.00 0.00 73 1019.9
20260506223902 15 189 4.8 11.3 0.00 0.00 0.00 73 1019.9
20260506223403 16 219 4.8 9.7 0.00 0.00 0.00 73 1019.9
20260506222403 16 209 1.6 4.8 0.00 0.00 0.00 74 1020.0
20260506221903 16 203 1.6 4.8 0.00 0.00 0.00 73 1020.0
20260506221404 16 208 0.0 3.2 0.00 0.00 0.00 73 1020.1
20260506220904 16 178 1.6 8.0 0.00 0.00 0.00 73 1020.2
20260506215903 16 210 3.2 8.0 0.00 0.00 0.00 73 1020.2
20260506215403 16 173 1.6 4.8 0.00 0.00 0.00 73 1020.1
20260506214904 16 218 1.6 9.7 0.00 0.00 0.00 73 1019.9
20260506214403 16 210 1.6 8.0 0.00 0.00 0.00 73 1020.1
20260506212904 16 193 1.6 11.3 0.00 0.00 0.00 73 1020.1
20260506212403 16 184 3.2 9.7 0.00 0.00 0.00 73 1020.0
20260506211404 16 154 3.2 8.0 0.00 0.00 0.00 73 1020.1
20260506210403 16 202 1.6 4.8 0.00 0.00 0.00 73 1020.0
20260506205903 15 267 1.6 8.0 0.00 0.00 0.00 74 1020.0
20260506205403 15 158 3.2 8.0 0.00 0.00 0.00 74 1020.0
20260506204903 15 181 1.6 8.0 0.00 0.00 0.00 74 1020.0
20260506204403 15 224 1.6 4.8 0.00 0.00 0.00 74 1020.0
20260506203903 15 201 3.2 9.7 0.00 0.00 0.00 74 1020.0
20260506203403 15 125 0.0 4.8 0.00 0.00 0.00 72 1019.9
20260506202903 15 130 1.6 4.8 0.00 0.00 0.00 73 1020.0
20260506202404 15 221 0.0 0.0 0.00 0.00 0.00 71 1020.1
20260506201903 15 140 0.0 3.2 0.00 0.00 0.00 70 1020.1
20260506201403 15 135 0.0 4.8 0.00 0.00 0.00 70 1020.2
20260506200903 15 128 1.6 3.2 0.00 0.00 0.00 70 1020.2
20260506200403 14 236 1.6 3.2 0.00 0.00 0.00 70 1020.1
20260506195403 14 276 1.6 4.8 0.00 0.00 0.00 68 1020.1
20260506194903 14 180 0.0 3.2 0.00 0.00 0.00 67 1020.0
20260506194404 14 150 0.0 4.8 0.00 0.00 0.00 63 1019.9
20260506193903 14 204 0.0 8.0 0.00 0.00 0.00 63 1019.9
20260506193403 14 141 1.6 4.8 0.00 0.00 0.00 62 1020.0
20260506192404 14 189 0.0 3.2 0.00 0.00 0.00 64 1020.0
20260506191403 14 218 1.6 3.2 0.00 0.00 0.00 64 1019.9
20260506190903 14 144 1.6 4.8 0.00 0.00 0.00 63 1019.8
20260506190403 14 151 1.6 4.8 0.00 0.00 0.00 65 1019.8
20260506185904 14 163 3.2 4.8 0.00 0.00 0.00 66 1019.8
20260506185403 14 172 1.6 1.6 0.00 0.00 0.00 62 1019.9
20260506184903 14 145 1.6 4.8 0.00 0.00 0.00 58 1019.9
20260506184403 14 189 1.6 3.2 0.00 0.00 0.00 56 1019.9
20260506183903 13 153 0.0 1.6 0.00 0.00 0.00 48 1019.8
20260506183403 13 137 0.0 1.6 0.00 0.00 0.00 44 1019.7
20260506182903 13 142 0.0 1.6 0.00 0.00 0.00 46 1019.7
20260506182404 13 194 3.2 4.8 0.00 0.00 0.00 51 1019.6
20260506181903 13 222 0.0 3.2 0.00 0.00 0.00 47 1019.7
20260506181403 13 211 1.6 4.8 0.00 0.00 0.00 50 1019.7
20260506180903 13 221 0.0 1.6 0.00 0.00 0.00 48 1019.7
20260506180403 13 240 0.0 1.6 0.00 0.00 0.00 53 1019.6
20260506175904 13 237 0.0 1.6 0.00 0.00 0.00 51 1019.7
20260506174903 13 226 0.0 3.2 0.00 0.00 0.00 51 1019.4
20260506174403 13 159 0.0 3.2 0.00 0.00 0.00 48 1019.3
20260506173403 13 133 0.0 0.0 0.00 0.00 0.00 43 1019.3
20260506172904 13 141 0.0 0.0 0.00 0.00 0.00 40 1019.4
20260506172404 13 124 0.0 0.0 0.00 0.00 0.00 33 1019.5
20260506171903 13 124 0.0 0.0 0.00 0.00 0.00 33 1019.6
20260506170903 13 124 0.0 0.0 0.00 0.00 0.00 29 1019.8
20260506170403 13 124 0.0 0.0 0.00 0.00 0.00 34 1019.6
20260506165903 13 124 0.0 0.0 0.00 0.00 0.00 29 1019.6
20260506165403 13 124 0.0 0.0 0.00 0.00 0.00 20 1019.6
20260506164903 13 124 0.0 0.0 0.00 0.00 0.00 18 1019.6
20260506164404 13 124 0.0 0.0 0.00 0.00 0.00 17 1019.7
20260506163905 13 124 0.0 0.0 0.00 0.00 0.00 16 1019.6
20260506163403 13 124 0.0 0.0 0.00 0.00 0.00 16 1019.6
20260506162903 13 124 0.0 0.0 0.00 0.00 0.00 11 1019.6
20260506162403 13 124 0.0 0.0 0.00 0.00 0.00 10 1019.5
20260506161904 13 124 0.0 0.0 0.00 0.00 0.00 9 1019.4
20260506161403 12 124 0.0 1.6 0.00 0.00 0.00 9 1019.3
20260506160903 12 217 0.0 0.0 0.00 0.00 0.00 3 1019.4
20260506160404 12 217 0.0 0.0 0.00 0.00 0.00 3 1019.4
20260506155903 12 217 0.0 1.6 0.00 0.00 0.00 3 1019.3
20260506154903 12 205 0.0 4.8 0.00 0.00 0.00 3 1019.0
20260506154403 12 193 1.6 4.8 0.00 0.00 0.00 3 1019.0
20260506153904 12 150 1.6 3.2 0.00 0.00 0.00 3 1019.1
20260506153403 12 124 0.0 0.0 0.00 0.00 0.00 3 1019.1
20260506152903 12 200 0.0 0.0 0.00 0.00 0.00 3 1019.2
20260506152403 12 200 0.0 0.0 0.00 0.00 0.00 3 1019.2
20260506151903 12 224 0.0 0.0 0.00 0.00 0.00 3 1019.3
20260506151404 12 224 0.0 0.0 0.00 0.00 0.00 3 1019.4
20260506145904 12 223 0.0 1.6 0.00 0.00 0.00 3 1019.3
20260506145403 12 107 0.0 1.6 0.00 0.00 0.00 3 1019.1
20260506144904 12 107 0.0 0.0 0.00 0.00 0.00 3 1019.1
20260506143904 11 191 0.0 1.6 0.00 0.00 0.00 3 1019.1
20260506142903 11 198 0.0 0.0 0.00 0.00 0.00 3 1019.1
20260506142404 11 198 0.0 0.0 0.00 0.00 0.00 3 1019.1
20260506141903 11 198 0.0 0.0 0.00 0.00 0.00 3 1019.0
20260506141404 11 198 0.0 0.0 0.00 0.00 0.00 3 1018.9
20260506140903 11 198 0.0 0.0 0.00 0.00 0.00 3 1018.9
20260506135903 11 198 0.0 0.0 0.00 0.00 0.00 3 1018.8
20260506135404 11 198 0.0 0.0 0.00 0.00 0.00 3 1018.9
20260506134904 11 198 0.0 0.0 0.00 0.00 0.00 3 1019.0
20260506134403 11 198 0.0 0.0 0.00 0.00 0.00 3 1018.9
20260506133904 11 198 0.0 0.0 0.00 0.00 0.00 3 1018.9
20260506133403 11 198 0.0 0.0 0.00 0.00 0.00 3 1019.0
20260506132904 11 198 0.0 0.0 0.00 0.00 0.00 3 1018.7
20260506132404 11 198 0.0 0.0 0.00 0.00 0.00 3 1018.8
20260506131904 11 198 0.0 0.0 0.00 0.00 0.00 3 1018.8
20260506131404 11 198 0.0 0.0 0.00 0.00 0.00 3 1018.7
20260506130903 11 198 0.0 0.0 0.00 0.00 0.00 3 1018.6
20260506125903 11 198 0.0 0.0 0.00 0.00 0.00 3 1018.4
20260506125404 11 198 0.0 0.0 0.00 0.00 0.00 3 1018.5
20260506124903 10 198 0.0 0.0 0.00 0.00 0.00 3 1018.3
20260506124403 10 198 0.0 0.0 0.00 0.00 0.00 3 1018.3
20260506123904 10 198 0.0 0.0 0.00 0.00 0.00 3 1018.3
20260506123403 10 198 0.0 0.0 0.00 0.00 0.00 3 1018.4
20260506122904 10 198 0.0 0.0 0.00 0.00 0.00 3 1018.3
20260506122403 10 198 0.0 0.0 0.00 0.00 0.00 3 1018.3
20260506121903 10 198 0.0 0.0 0.00 0.00 0.00 3 1018.4
20260506120903 10 198 0.0 0.0 0.00 0.00 0.00 3 1018.3
20260506120403 10 198 0.0 0.0 0.00 0.00 0.00 3 1018.3
20260506115904 10 198 0.0 0.0 0.00 0.00 0.00 3 1018.3
20260506115403 10 198 0.0 0.0 0.00 0.00 0.00 3 1018.3
20260506114904 10 198 0.0 0.0 0.00 0.00 0.00 3 1018.3
20260506114404 10 198 0.0 0.0 0.00 0.00 0.00 3 1018.2
20260506113904 10 198 0.0 0.0 0.00 0.00 0.00 3 1018.2
20260506113404 10 198 0.0 0.0 0.00 0.00 0.00 3 1018.2
20260506112903 10 198 0.0 0.0 0.00 0.00 0.00 3 1018.1
20260506112404 10 198 0.0 0.0 0.00 0.00 0.00 3 1018.0
20260506111903 10 198 0.0 0.0 0.00 0.00 0.00 3 1017.9
20260506111403 10 198 0.0 0.0 0.00 0.00 0.00 3 1017.8
20260506110402 10 198 0.0 0.0 0.00 0.00 0.00 3 1017.7
20260506105903 10 198 0.0 0.0 0.00 0.00 0.00 3 1017.7
20260506105402 10 198 0.0 0.0 0.00 0.00 0.00 3 1017.6
20260506104904 10 198 0.0 0.0 0.00 0.00 0.00 3 1017.5
20260506104402 10 198 0.0 0.0 0.00 0.00 0.00 3 1017.5
20260506103403 9 198 0.0 0.0 0.00 0.00 0.00 3 1017.4
20260506102403 9 198 0.0 0.0 0.00 0.00 0.00 3 1017.5
20260506101902 9 198 0.0 0.0 0.00 0.00 0.00 3 1017.4
20260506101402 9 198 0.0 0.0 0.00 0.00 0.00 3 1017.3
20260506100903 9 198 0.0 0.0 0.00 0.00 0.00 3 1017.2
20260506100402 9 198 0.0 0.0 0.00 0.00 0.00 3 1017.3
20260506095903 9 198 0.0 0.0 0.00 0.00 0.00 3 1017.3
20260506095402 8 198 0.0 0.0 0.00 0.00 0.00 3 1017.2
20260506094403 8 198 0.0 0.0 0.00 0.00 0.00 3 1017.2
20260506093902 8 198 0.0 0.0 0.00 0.00 0.00 3 1017.1
20260506093402 8 198 0.0 0.0 0.00 0.00 0.00 3 1017.1
20260506092903 8 198 0.0 0.0 0.00 0.00 0.00 3 1017.1
20260506092402 8 198 0.0 0.0 0.00 0.00 0.00 3 1017.2
20260506091903 8 198 0.0 0.0 0.00 0.00 0.00 3 1017.1
20260506091403 8 198 0.0 0.0 0.00 0.00 0.00 3 1017.1
20260506090902 8 198 0.0 0.0 0.00 0.00 0.00 3 1017.0
20260506090403 8 198 0.0 0.0 0.00 0.00 0.00 3 1017.0
20260506085902 8 198 0.0 0.0 0.00 0.00 0.00 3 1017.0
20260506085403 8 198 0.0 0.0 0.00 0.00 0.00 3 1016.9
20260506084902 9 198 0.0 0.0 0.00 0.00 0.00 3 1016.8
20260506084403 9 198 0.0 0.0 0.00 0.00 0.00 3 1016.7
20260506083902 9 198 0.0 0.0 0.00 0.00 0.00 3 1016.6
20260506081403 9 198 0.0 0.0 0.00 0.00 0.00 3 1016.5
20260506073403 10 198 0.0 0.0 0.00 0.00 0.00 3 1016.2
20260506072903 10 198 0.0 0.0 0.00 0.00 0.00 3 1016.3
20260506071903 10 198 0.0 0.0 0.00 0.00 0.00 3 1016.2
20260506071402 10 198 0.0 0.0 0.00 0.00 0.00 3 1016.2
20260506070403 10 198 0.0 0.0 0.00 0.00 0.00 3 1016.1
20260506062403 11 198 0.0 0.0 0.00 0.00 0.00 3 1016.0
20260506061903 11 198 0.0 0.0 0.00 0.00 0.00 3 1015.9
20260506061403 11 198 0.0 0.0 0.00 0.00 0.00 3 1015.9
20260506060902 11 198 0.0 0.0 0.00 0.00 0.00 3 1015.8
20260506051403 12 198 0.0 0.0 0.00 0.00 0.00 6 1015.3
20260506050903 12 198 0.0 0.0 0.00 0.00 0.00 10 1015.2
20260506050403 12 198 0.0 0.0 0.00 0.00 0.00 12 1015.1
20260506044902 12 198 0.0 0.0 0.00 0.00 0.00 25 1015.1
20260506044403 12 198 0.0 0.0 0.00 0.00 0.00 24 1015.1
20260506043403 12 198 0.0 0.0 0.00 0.00 0.00 31 1015.0
20260506042402 13 198 0.0 0.0 0.00 0.00 0.00 36 1014.9
20260506041403 13 198 0.0 0.0 0.00 0.00 0.00 49 1014.7
20260506040902 13 198 0.0 0.0 0.00 0.00 0.00 50 1014.7
20260506040403 13 198 0.0 0.0 0.00 0.00 0.00 53 1014.7
20260506035903 13 198 0.0 0.0 0.00 0.00 0.00 58 1014.7
20260506035403 13 198 0.0 0.0 0.00 0.00 0.00 59 1014.7
20260506034903 14 198 0.0 0.0 0.00 0.00 0.00 60 1014.7
20260506034403 14 198 0.0 0.0 0.00 0.00 0.00 63 1014.6
20260506033903 14 198 0.0 0.0 0.00 0.00 0.00 63 1014.6
20260506032902 15 198 0.0 0.0 0.00 0.00 0.00 65 1014.5
20260506032403 15 198 0.0 0.0 0.00 0.00 0.00 67 1014.5
20260506031903 15 198 0.0 0.0 0.00 0.00 0.00 68 1014.5
20260506031402 15 198 0.0 0.0 0.00 0.00 0.00 69 1014.4
20260506030903 15 198 0.0 0.0 0.00 0.00 0.00 70 1014.3
20260506030404 16 198 0.0 0.0 0.00 0.00 0.00 72 1014.3
20260506025902 16 198 0.0 0.0 0.00 0.00 0.00 73 1014.2
20260506025403 16 198 0.0 0.0 0.00 0.00 0.00 73 1014.2
20260506024904 16 198 0.0 0.0 0.00 0.00 0.00 73 1014.3
20260506024404 16 198 0.0 0.0 0.00 0.00 0.00 73 1014.3
20260506023903 16 198 0.0 0.0 0.00 0.00 0.00 73 1014.2